TimeCDT,TemperatureF,Dew PointF,Humidity,Sea Level PressureIn,VisibilityMPH,Wind Direction,Wind SpeedMPH,Gust SpeedMPH,PrecipitationIn,Events,Conditions,WindDirDegrees,DateUTC
12:00 AM,21.2,17.6,86,29.95,15.0,Calm,Calm,-,N/A,,Mostly Cloudy,0,2012-10-05 05:00:00
1:00 AM,23.0,19.4,86,29.94,15.0,SE,3.5,-,N/A,,Mostly Cloudy,130,2012-10-05 06:00:00
2:00 AM,23.0,19.4,86,29.93,15.0,ESE,6.9,-,N/A,,Mostly Cloudy,110,2012-10-05 07:00:00
3:00 AM,24.8,19.4,80,29.92,15.0,East,6.9,-,N/A,,Mostly Cloudy,100,2012-10-05 08:00:00
4:00 AM,23.0,19.4,86,29.91,15.0,ENE,10.4,-,N/A,,Mostly Cloudy,70,2012-10-05 09:00:00
5:00 AM,24.8,21.2,86,29.90,15.0,East,8.1,-,N/A,,Overcast,100,2012-10-05 10:00:00
5:29 AM,-9999,-9999,N/A,-9999,12.0,East,10.4,-,N/A,,Light Freezing Drizzle,100,2012-10-05 10:29:00
6:00 AM,24.8,21.2,86,29.89,3.0,East,11.5,-,N/A,,Light Freezing Drizzle,100,2012-10-05 11:00:00
6:15 AM,-9999,-9999,N/A,-9999,15.0,East,11.5,-,N/A,,Light Freezing Drizzle,100,2012-10-05 11:15:00
7:00 AM,24.8,21.2,86,29.88,15.0,ESE,8.1,-,N/A,,Light Freezing Drizzle,120,2012-10-05 12:00:00
7:35 AM,-9999,-9999,N/A,-9999,8.0,ESE,9.2,-,N/A,,Mostly Cloudy,110,2012-10-05 12:35:00
7:57 AM,-9999,-9999,N/A,-9999,8.0,East,9.2,-,N/A,,Overcast,100,2012-10-05 12:57:00
8:00 AM,26.6,23.0,86,29.88,8.0,East,9.2,-,N/A,,Overcast,100,2012-10-05 13:00:00
8:40 AM,-9999,-9999,N/A,-9999,5.0,East,11.5,-,N/A,Snow,Light Snow Grains,100,2012-10-05 13:40:00
9:00 AM,26.6,23.0,86,29.87,6.0,ESE,9.2,-,N/A,Snow,Light Snow Grains,110,2012-10-05 14:00:00
9:12 AM,-9999,-9999,N/A,-9999,2.0,ESE,11.5,-,N/A,,Unknown,120,2012-10-05 14:12:00
9:33 AM,-9999,-9999,N/A,-9999,1.5,ESE,10.4,-,N/A,Snow,Light Snow Grains,120,2012-10-05 14:33:00
9:53 AM,-9999,-9999,N/A,-9999,1.5,SSE,6.9,-,N/A,Snow,Light Snow Grains,150,2012-10-05 14:53:00
10:00 AM,28.4,24.8,86,29.86,1.5,South,8.1,-,N/A,Snow,Light Snow Grains,180,2012-10-05 15:00:00
10:29 AM,-9999,-9999,N/A,-9999,15.0,South,8.1,-,N/A,,Mostly Cloudy,180,2012-10-05 15:29:00
11:00 AM,28.4,24.8,86,29.87,7.0,South,8.1,-,N/A,Snow,Light Snow Grains,170,2012-10-05 16:00:00
12:00 PM,28.4,24.8,86,29.87,15.0,SSE,5.8,-,N/A,,Overcast,160,2012-10-05 17:00:00
12:23 PM,-9999,-9999,N/A,-9999,15.0,SE,4.6,-,N/A,,Mostly Cloudy,140,2012-10-05 17:23:00
1:00 PM,28,22,68,29.88,15,ESE,8.1,,,Snow,Light Snow,120,2012-10-05 18:00:00
1:00 PM,28.4,24.8,86,29.87,15.0,ESE,8.1,-,N/A,,Overcast,120,2012-10-05 18:00:00
1:08 PM,-9999,-9999,N/A,-9999,15.0,ESE,6.9,-,N/A,Snow,Light Snow Grains,120,2012-10-05 18:08:00
2:00 PM,28.4,24.8,86,29.87,15.0,SE,5.8,-,N/A,,Mostly Cloudy,130,2012-10-05 19:00:00
3:00 PM,28.4,24.8,86,29.88,15.0,SE,8.1,-,N/A,,Mostly Cloudy,140,2012-10-05 20:00:00
4:00 PM,28.4,24.8,86,29.89,15.0,SE,6.9,-,N/A,,Mostly Cloudy,130,2012-10-05 21:00:00
5:00 PM,28.4,23.0,80,29.89,15.0,ESE,6.9,-,N/A,,Mostly Cloudy,120,2012-10-05 22:00:00
6:00 PM,28.4,23.0,80,29.90,15.0,SE,6.9,-,N/A,,Mostly Cloudy,140,2012-10-05 23:00:00
7:00 PM,28,23,76,29.90,15,SE,8.1,,,,Mostly Cloudy,130,2012-10-06 00:00:00
7:00 PM,28.4,23.0,80,29.90,15.0,SE,8.1,-,N/A,,Mostly Cloudy,130,2012-10-06 00:00:00
8:00 PM,28.4,24.8,86,29.90,15.0,ESE,6.9,-,N/A,Snow,Light Snow,120,2012-10-06 01:00:00
8:24 PM,-9999,-9999,N/A,-9999,12.0,ESE,6.9,-,N/A,,Unknown,120,2012-10-06 01:24:00
9:00 PM,28.4,24.8,86,29.90,12.0,SE,5.8,-,N/A,Snow,Light Snow,130,2012-10-06 02:00:00
10:00 PM,28.4,24.8,86,29.90,12.0,SE,3.5,-,N/A,Snow,Light Snow,130,2012-10-06 03:00:00
10:11 PM,-9999,-9999,N/A,-9999,12.0,ESE,3.5,-,N/A,,Unknown,120,2012-10-06 03:11:00
10:45 PM,-9999,-9999,N/A,-9999,1.0,Calm,Calm,-,N/A,,Light Freezing Drizzle,0,2012-10-06 03:45:00
10:52 PM,-9999,-9999,N/A,-9999,0.5,Calm,Calm,-,N/A,Fog,Light Freezing Drizzle,0,2012-10-06 03:52:00
11:00 PM,28.4,24.8,86,29.90,0.5,Calm,Calm,-,N/A,Fog,Light Freezing Fog,0,2012-10-06 04:00:00
11:52 PM,-9999,-9999,N/A,-9999,2.5,Calm,Calm,-,N/A,,Overcast,0,2012-10-06 04:52:00